This is the latest recevied weather packets stored in our database for station/object GBTWP-2. If no packets are shown the sender has not sent any weather packets the latest 10 day(s).
| Time | Temp. | Humidity | Pressure | Rain* | Wind** | Luminosity | Snow |
|---|---|---|---|---|---|---|---|
| 1788137820 | 70° F | 84% | 764.4 mmHg | 0 in | - | 0 W/m² | - |
| 1788137519 | 70° F | 84% | 764.3 mmHg | 0 in | - | 0 W/m² | - |
| 1788137220 | 70° F | 84% | 764.3 mmHg | 0 in | - | 0 W/m² | - |
| 1788136919 | 71° F | 83% | 764.2 mmHg | 0 in | - | 0 W/m² | - |
| 1788136621 | 71° F | 83% | 764.3 mmHg | 0 in | - | 0 W/m² | - |
| 1788136319 | 71° F | 83% | 764.2 mmHg | 0 in | - | 0 W/m² | - |
| 1788136021 | 71° F | 82% | 764.2 mmHg | 0 in | - | 0 W/m² | - |
| 1788135719 | 71° F | 83% | 764.2 mmHg | 0 in | - | 1 W/m² | - |
| 1788135420 | 71° F | 82% | 764.3 mmHg | 0 in | - | 1 W/m² | - |
| 1788135119 | 71° F | 82% | 764.2 mmHg | 0 in | - | 2 W/m² | - |
| 1788134819 | 72° F | 82% | 764.2 mmHg | 0 in | - | 2 W/m² | - |
| 1788134519 | 72° F | 82% | 764.3 mmHg | 0 in | - | 3 W/m² | - |
| 1788134220 | 72° F | 82% | 764.2 mmHg | 0 in | - | 4 W/m² | - |
| 1788133919 | 72° F | 83% | 764.1 mmHg | 0 in | - | 6 W/m² | - |
| 1788133621 | 72° F | 83% | 764.2 mmHg | 0 in | - | 10 W/m² | - |
| 1788133319 | 72° F | 83% | 764.2 mmHg | 0 in | - | 12 W/m² | - |
| 1788133020 | 72° F | 82% | 764.2 mmHg | 0 in | - | 16 W/m² | - |
| 1788132719 | 72° F | 82% | 764 mmHg | 0 in | - | 19 W/m² | - |
| 1788132420 | 72° F | 82% | 764.2 mmHg | 0 in | - | 28 W/m² | - |
| 1788132119 | 72° F | 82% | 764 mmHg | 0 in | - | 30 W/m² | - |
| 1788131821 | 73° F | 82% | 764.2 mmHg | 0 in | - | 37 W/m² | - |
| 1788131520 | 73° F | 81% | 764.1 mmHg | 0 in | - | 49 W/m² | - |
| 1788131220 | 73° F | 81% | 764.2 mmHg | 0 in | - | 64 W/m² | - |
| 1788130919 | 73° F | 81% | 764.3 mmHg | 0 in | - | 61 W/m² | - |
| 1788130620 | 73° F | 81% | 764.2 mmHg | 0 in | - | 64 W/m² | - |
* Rain latest hour (hover to see other rain measurements)
** Current wind speed in m/s (hover to see current wind gust speed)